| time (UTC) | temp C | wind direction | speed KPH | gust KPH | rain 1hr cm | rain 24hr cm | rain mn cm | humidity % | barometer mb |
| 20260504234933 | 26 | 350 | 9.7 | 17.7 | 0.00 | 0.00 | 0.00 | 45 | 1027.1 |
| 20260504234431 | 27 | 353 | 4.8 | 11.3 | 0.00 | 0.00 | 0.00 | 45 | 1027.0 |
| 20260504233927 | 27 | 17 | 6.4 | 16.1 | 0.00 | 0.00 | 0.00 | 45 | 1027.1 |
| 20260504233423 | 27 | 10 | 11.3 | 14.5 | 0.00 | 0.00 | 0.00 | 44 | 1027.2 |
| 20260504232920 | 27 | 340 | 11.3 | 12.9 | 0.00 | 0.00 | 0.00 | 43 | 1027.2 |
| 20260504232417 | 27 | 16 | 1.6 | 11.3 | 0.00 | 0.00 | 0.00 | 44 | 1027.1 |
| 20260504231914 | 27 | 355 | 6.4 | 16.1 | 0.00 | 0.00 | 0.00 | 42 | 1027.0 |
| 20260504231410 | 27 | 352 | 8.0 | 11.3 | 0.00 | 0.00 | 0.00 | 41 | 1027.0 |
| 20260504230907 | 27 | 342 | 8.0 | 12.9 | 0.00 | 0.00 | 0.00 | 44 | 1027.1 |
| 20260504230404 | 27 | 19 | 9.7 | 11.3 | 0.00 | 0.00 | 0.00 | 42 | 1027.1 |
| 20260504225903 | 27 | 22 | 9.7 | 17.7 | 0.00 | 0.00 | 0.00 | 43 | 1027.2 |
| 20260504225359 | 27 | 14 | 8.0 | 12.9 | 0.00 | 0.00 | 0.00 | 42 | 1027.4 |
| 20260504224857 | 28 | 31 | 4.8 | 6.4 | 0.00 | 0.00 | 0.00 | 41 | 1027.3 |
| 20260504224353 | 27 | 332 | 3.2 | 11.3 | 0.00 | 0.00 | 0.00 | 41 | 1027.4 |
| 20260504223850 | 28 | 16 | 4.8 | 9.7 | 0.00 | 0.00 | 0.00 | 39 | 1027.6 |
| 20260504223345 | 27 | 18 | 3.2 | 11.3 | 0.00 | 0.00 | 0.00 | 40 | 1027.5 |
| 20260504222842 | 27 | 8 | 6.4 | 9.7 | 0.00 | 0.00 | 0.00 | 41 | 1027.4 |
| 20260504222339 | 27 | 54 | 4.8 | 9.7 | 0.00 | 0.00 | 0.00 | 39 | 1027.4 |
| 20260504221838 | 27 | 335 | 1.6 | 11.3 | 0.00 | 0.00 | 0.00 | 41 | 1027.5 |
| 20260504221334 | 27 | 13 | 6.4 | 11.3 | 0.00 | 0.00 | 0.00 | 40 | 1027.6 |
| 20260504220831 | 27 | 12 | 4.8 | 16.1 | 0.00 | 0.00 | 0.00 | 41 | 1027.7 |
| 20260504220328 | 28 | 11 | 9.7 | 16.1 | 0.00 | 0.00 | 0.00 | 38 | 1027.7 |
| 20260504215825 | 27 | 112 | 0.0 | 3.2 | 0.00 | 0.00 | 0.00 | 41 | 1027.9 |
| 20260504215321 | 27 | 348 | 4.8 | 6.4 | 0.00 | 0.00 | 0.00 | 40 | 1027.7 |
| 20260504214817 | 27 | 139 | 1.6 | 11.3 | 0.00 | 0.00 | 0.00 | 41 | 1027.8 |
| 20260504214315 | 27 | 341 | 9.7 | 14.5 | 0.00 | 0.00 | 0.00 | 41 | 1027.8 |
| 20260504213811 | 27 | 354 | 3.2 | 9.7 | 0.00 | 0.00 | 0.00 | 42 | 1028.0 |
| 20260504213307 | 26 | 16 | 4.8 | 9.7 | 0.00 | 0.00 | 0.00 | 41 | 1027.7 |
| 20260504212805 | 26 | 12 | 9.7 | 11.3 | 0.00 | 0.00 | 0.00 | 42 | 1027.9 |
| 20260504212300 | 26 | 29 | 3.2 | 3.2 | 0.00 | 0.00 | 0.00 | 39 | 1027.8 |
| 20260504211758 | 26 | 349 | 4.8 | 11.3 | 0.00 | 0.00 | 0.00 | 40 | 1027.7 |
| 20260504211248 | 27 | 344 | 4.8 | 6.4 | 0.00 | 0.00 | 0.00 | 39 | 1027.9 |
| 20260504210746 | 27 | 1 | 1.6 | 4.8 | 0.00 | 0.00 | 0.00 | 40 | 1027.7 |
| 20260504210243 | 27 | 93 | 1.6 | 6.4 | 0.00 | 0.00 | 0.00 | 37 | 1027.8 |
| 20260504205740 | 27 | 249 | 0.0 | 3.2 | 0.00 | 0.00 | 0.00 | 38 | 1027.7 |
| 20260504205238 | 27 | 38 | 1.6 | 3.2 | 0.00 | 0.00 | 0.00 | 38 | 1027.8 |
| 20260504204736 | 27 | 301 | 3.2 | 6.4 | 0.00 | 0.00 | 0.00 | 38 | 1027.8 |
| 20260504204234 | 27 | 68 | 1.6 | 6.4 | 0.00 | 0.00 | 0.00 | 35 | 1028.0 |
| 20260504203733 | 27 | 338 | 9.7 | 12.9 | 0.00 | 0.00 | 0.00 | 37 | 1027.9 |
| 20260504203230 | 27 | 17 | 3.2 | 6.4 | 0.00 | 0.00 | 0.00 | 36 | 1028.1 |
| 20260504202730 | 27 | 113 | 1.6 | 6.4 | 0.00 | 0.00 | 0.00 | 37 | 1028.0 |
| 20260504202227 | 27 | 123 | 4.8 | 6.4 | 0.00 | 0.00 | 0.00 | 38 | 1028.0 |
| 20260504201724 | 27 | 22 | 1.6 | 4.8 | 0.00 | 0.00 | 0.00 | 37 | 1027.8 |
| 20260504201221 | 27 | 1 | 6.4 | 12.9 | 0.00 | 0.00 | 0.00 | 36 | 1027.9 |
| 20260504200719 | 27 | 24 | 4.8 | 9.7 | 0.00 | 0.00 | 0.00 | 34 | 1028.0 |
| 20260504200215 | 26 | 11 | 0.0 | 11.3 | 0.00 | 0.00 | 0.00 | 39 | 1028.0 |
| 20260504195711 | 26 | 75 | 1.6 | 14.5 | 0.00 | 0.00 | 0.00 | 39 | 1028.2 |
| 20260504195207 | 27 | 90 | 1.6 | 6.4 | 0.00 | 0.00 | 0.00 | 36 | 1028.0 |
| 20260504194704 | 27 | 320 | 3.2 | 4.8 | 0.00 | 0.00 | 0.00 | 36 | 1028.0 |
| 20260504194201 | 26 | 67 | 3.2 | 9.7 | 0.00 | 0.00 | 0.00 | 35 | 1028.1 |
| 20260504193657 | 27 | 9 | 6.4 | 9.7 | 0.00 | 0.00 | 0.00 | 36 | 1028.1 |
| 20260504193155 | 27 | 8 | 3.2 | 9.7 | 0.00 | 0.00 | 0.00 | 35 | 1028.1 |
| 20260504192653 | 26 | 21 | 6.4 | 12.9 | 0.00 | 0.00 | 0.00 | 37 | 1028.2 |
| 20260504192150 | 26 | 347 | 0.0 | 3.2 | 0.00 | 0.00 | 0.00 | 37 | 1027.9 |
| 20260504191649 | 26 | 342 | 3.2 | 16.1 | 0.00 | 0.00 | 0.00 | 37 | 1027.9 |
| 20260504191144 | 26 | 7 | 1.6 | 12.9 | 0.00 | 0.00 | 0.00 | 36 | 1028.1 |
| 20260504190640 | 26 | 2 | 3.2 | 6.4 | 0.00 | 0.00 | 0.00 | 37 | 1028.1 |
| 20260504190138 | 26 | 81 | 1.6 | 6.4 | 0.00 | 0.00 | 0.00 | 37 | 1028.3 |
| 20260504185634 | 26 | 33 | 1.6 | 4.8 | 0.00 | 0.00 | 0.00 | 37 | 1028.1 |
| 20260504185131 | 26 | 0 | 6.4 | 14.5 | 0.00 | 0.00 | 0.00 | 39 | 1027.9 |
| 20260504184627 | 26 | 10 | 4.8 | 6.4 | 0.00 | 0.00 | 0.00 | 38 | 1028.3 |
| 20260504184121 | 26 | 285 | 0.0 | 6.4 | 0.00 | 0.00 | 0.00 | 38 | 1028.1 |
| 20260504183619 | 25 | 352 | 6.4 | 11.3 | 0.00 | 0.00 | 0.00 | 38 | 1028.2 |
| 20260504183117 | 25 | 358 | 3.2 | 9.7 | 0.00 | 0.00 | 0.00 | 41 | 1028.1 |
| 20260504182614 | 25 | 357 | 6.4 | 11.3 | 0.00 | 0.00 | 0.00 | 38 | 1028.3 |
| 20260504182111 | 26 | 279 | 1.6 | 3.2 | 0.00 | 0.00 | 0.00 | 38 | 1028.1 |
| 20260504181609 | 25 | 59 | 3.2 | 3.2 | 0.00 | 0.00 | 0.00 | 38 | 1028.1 |
| 20260504181106 | 25 | 291 | 0.0 | 12.9 | 0.00 | 0.00 | 0.00 | 41 | 1028.4 |
| 20260504180605 | 25 | 5 | 4.8 | 14.5 | 0.00 | 0.00 | 0.00 | 38 | 1028.0 |
| 20260504180104 | 25 | 117 | 0.0 | 3.2 | 0.00 | 0.00 | 0.00 | 40 | 1028.1 |
| 20260504175600 | 25 | 220 | 1.6 | 14.5 | 0.00 | 0.00 | 0.00 | 37 | 1028.1 |
| 20260504175057 | 25 | 273 | 6.4 | 17.7 | 0.00 | 0.00 | 0.00 | 37 | 1028.2 |
| 20260504174555 | 25 | 335 | 3.2 | 11.3 | 0.00 | 0.00 | 0.00 | 35 | 1028.2 |
| 20260504174051 | 25 | 302 | 1.6 | 3.2 | 0.00 | 0.00 | 0.00 | 39 | 1028.0 |
| 20260504173548 | 25 | 80 | 1.6 | 4.8 | 0.00 | 0.00 | 0.00 | 41 | 1028.1 |
| 20260504173046 | 24 | 60 | 1.6 | 4.8 | 0.00 | 0.00 | 0.00 | 43 | 1028.2 |
| 20260504172542 | 23 | 71 | 1.6 | 3.2 | 0.00 | 0.00 | 0.00 | 45 | 1028.1 |
| 20260504172039 | 23 | 126 | 4.8 | 12.9 | 0.00 | 0.00 | 0.00 | 45 | 1028.3 |
| 20260504171536 | 23 | 112 | 3.2 | 3.2 | 0.00 | 0.00 | 0.00 | 49 | 1028.3 |
| 20260504171033 | 23 | 96 | 0.0 | 1.6 | 0.00 | 0.00 | 0.00 | 49 | 1028.6 |
| 20260504170528 | 23 | 69 | 0.0 | 0.0 | 0.00 | 0.00 | 0.00 | 50 | 1028.7 |
| 20260504150912 | 8 | 3 | 0.0 | 0.0 | 0.00 | 0.00 | 0.00 | 96 | 1029.3 |
| 20260504150409 | 7 | 4 | 0.0 | 0.0 | 0.00 | 0.00 | 0.00 | 97 | 1029.1 |
| 20260504140835 | 6 | 2 | 0.0 | 0.0 | 0.00 | 0.00 | 0.00 | 99 | 1029.0 |
| 20260504140331 | 6 | 2 | 0.0 | 0.0 | 0.00 | 0.00 | 0.00 | 99 | 1028.8 |
| 20260504130800 | 6 | 4 | 0.0 | 0.0 | 0.00 | 0.00 | 0.00 | 99 | 1028.5 |
| 20260504130256 | 6 | 4 | 0.0 | 0.0 | 0.00 | 0.00 | 0.00 | 99 | 1028.8 |
| 20260504120220 | 7 | 96 | 0.0 | 0.0 | 0.00 | 0.00 | 0.00 | 98 | 1028.6 |
| 20260504110647 | 7 | 43 | 0.0 | 0.0 | 0.00 | 0.00 | 0.00 | 97 | 1028.8 |
| 20260504110143 | 8 | 41 | 0.0 | 0.0 | 0.00 | 0.00 | 0.00 | 98 | 1028.8 |
| 20260504100609 | 8 | 52 | 0.0 | 0.0 | 0.00 | 0.00 | 0.00 | 96 | 1028.5 |
| 20260504100108 | 8 | 52 | 0.0 | 0.0 | 0.00 | 0.00 | 0.00 | 96 | 1028.7 |
| 20260504082003 | 10 | 57 | 0.0 | 0.0 | 0.00 | 0.00 | 0.00 | 93 | 1028.6 |
| 20260504081501 | 10 | 57 | 0.0 | 0.0 | 0.00 | 0.00 | 0.00 | 92 | 1028.4 |
| 20260504080956 | 10 | 57 | 0.0 | 0.0 | 0.00 | 0.00 | 0.00 | 92 | 1028.2 |
| 20260504080452 | 10 | 57 | 0.0 | 0.0 | 0.00 | 0.00 | 0.00 | 92 | 1028.7 |
| 20260504050259 | 13 | 161 | 0.0 | 0.0 | 0.00 | 0.00 | 0.00 | 80 | 1028.5 |
| 20260504045756 | 14 | 161 | 0.0 | 0.0 | 0.00 | 0.00 | 0.00 | 80 | 1028.3 |
| 20260504045251 | 14 | 161 | 0.0 | 0.0 | 0.00 | 0.00 | 0.00 | 79 | 1028.6 |
| 20260504044749 | 14 | 161 | 0.0 | 0.0 | 0.00 | 0.00 | 0.00 | 79 | 1028.3 |
| 20260504044246 | 15 | 161 | 0.0 | 1.6 | 0.00 | 0.00 | 0.00 | 78 | 1028.4 |
| 20260504043743 | 15 | 161 | 0.0 | 0.0 | 0.00 | 0.00 | 0.00 | 76 | 1028.5 |
| 20260504043239 | 15 | 161 | 0.0 | 0.0 | 0.00 | 0.00 | 0.00 | 76 | 1028.5 |
| 20260504042732 | 15 | 161 | 0.0 | 1.6 | 0.00 | 0.00 | 0.00 | 76 | 1028.5 |
| 20260504042228 | 15 | 161 | 0.0 | 0.0 | 0.00 | 0.00 | 0.00 | 75 | 1028.4 |
| 20260504041724 | 15 | 161 | 1.6 | 1.6 | 0.00 | 0.00 | 0.00 | 73 | 1028.4 |
| 20260504041220 | 16 | 161 | 0.0 | 0.0 | 0.00 | 0.00 | 0.00 | 73 | 1028.4 |
| 20260504040717 | 16 | 161 | 0.0 | 0.0 | 0.00 | 0.00 | 0.00 | 73 | 1028.4 |
| 20260504040214 | 16 | 161 | 0.0 | 0.0 | 0.00 | 0.00 | 0.00 | 72 | 1028.3 |
| 20260504035710 | 16 | 161 | 0.0 | 0.0 | 0.00 | 0.00 | 0.00 | 71 | 1028.4 |
| 20260504035208 | 17 | 161 | 0.0 | 0.0 | 0.00 | 0.00 | 0.00 | 71 | 1028.3 |
| 20260504034705 | 17 | 161 | 0.0 | 0.0 | 0.00 | 0.00 | 0.00 | 70 | 1028.1 |
| 20260504034202 | 17 | 161 | 0.0 | 0.0 | 0.00 | 0.00 | 0.00 | 70 | 1028.2 |
| 20260504033700 | 17 | 161 | 0.0 | 0.0 | 0.00 | 0.00 | 0.00 | 69 | 1028.1 |
| 20260504033157 | 18 | 161 | 0.0 | 0.0 | 0.00 | 0.00 | 0.00 | 67 | 1028.3 |
| 20260504032653 | 18 | 161 | 0.0 | 0.0 | 0.00 | 0.00 | 0.00 | 65 | 1028.1 |
| 20260504032151 | 18 | 161 | 0.0 | 0.0 | 0.00 | 0.00 | 0.00 | 63 | 1028.1 |
| 20260504031648 | 18 | 161 | 0.0 | 0.0 | 0.00 | 0.00 | 0.00 | 65 | 1028.0 |
| 20260504031144 | 19 | 161 | 0.0 | 0.0 | 0.00 | 0.00 | 0.00 | 63 | 1027.9 |
| 20260504030641 | 20 | 161 | 0.0 | 0.0 | 0.00 | 0.00 | 0.00 | 61 | 1028.0 |
| 20260504030138 | 20 | 161 | 0.0 | 0.0 | 0.00 | 0.00 | 0.00 | 61 | 1028.0 |
| 20260504025634 | 20 | 161 | 0.0 | 0.0 | 0.00 | 0.00 | 0.00 | 60 | 1027.9 |
| 20260504025131 | 21 | 161 | 0.0 | 1.6 | 0.00 | 0.00 | 0.00 | 59 | 1027.9 |
| 20260504024629 | 21 | 161 | 0.0 | 3.2 | 0.00 | 0.00 | 0.00 | 57 | 1027.8 |
| 20260504024125 | 22 | 353 | 0.0 | 0.0 | 0.00 | 0.00 | 0.00 | 50 | 1028.0 |
| 20260504023622 | 23 | 352 | 1.6 | 3.2 | 0.00 | 0.00 | 0.00 | 47 | 1027.5 |
| 20260504023118 | 24 | 348 | 4.8 | 6.4 | 0.00 | 0.00 | 0.00 | 42 | 1027.7 |
| 20260504022614 | 24 | 0 | 4.8 | 6.4 | 0.00 | 0.00 | 0.00 | 40 | 1027.9 |
| 20260504022110 | 25 | 3 | 3.2 | 6.4 | 0.00 | 0.00 | 0.00 | 37 | 1027.9 |
| 20260504021608 | 25 | 8 | 4.8 | 11.3 | 0.00 | 0.00 | 0.00 | 37 | 1028.0 |
| 20260504021105 | 25 | 21 | 8.0 | 12.9 | 0.00 | 0.00 | 0.00 | 37 | 1028.1 |
| 20260504020602 | 25 | 347 | 4.8 | 11.3 | 0.00 | 0.00 | 0.00 | 40 | 1027.9 |
| 20260504020058 | 25 | 3 | 6.4 | 11.3 | 0.00 | 0.00 | 0.00 | 42 | 1028.2 |
| 20260504015554 | 25 | 353 | 6.4 | 16.1 | 0.00 | 0.00 | 0.00 | 42 | 1028.2 |
| 20260504015050 | 25 | 336 | 6.4 | 9.7 | 0.00 | 0.00 | 0.00 | 43 | 1028.1 |
| 20260504014547 | 26 | 357 | 9.7 | 11.3 | 0.00 | 0.00 | 0.00 | 41 | 1028.1 |
| 20260504014044 | 26 | 344 | 4.8 | 9.7 | 0.00 | 0.00 | 0.00 | 41 | 1028.2 |
| 20260504013541 | 26 | 346 | 6.4 | 14.5 | 0.00 | 0.00 | 0.00 | 40 | 1028.1 |
| 20260504013038 | 26 | 10 | 9.7 | 11.3 | 0.00 | 0.00 | 0.00 | 39 | 1028.1 |
| 20260504012536 | 26 | 358 | 8.0 | 11.3 | 0.00 | 0.00 | 0.00 | 40 | 1028.2 |
| 20260504012033 | 26 | 11 | 3.2 | 4.8 | 0.00 | 0.00 | 0.00 | 40 | 1028.2 |
| 20260504011530 | 26 | 10 | 8.0 | 11.3 | 0.00 | 0.00 | 0.00 | 39 | 1028.3 |
| 20260504011026 | 26 | 18 | 4.8 | 6.4 | 0.00 | 0.00 | 0.00 | 40 | 1028.5 |
| 20260504010522 | 26 | 11 | 4.8 | 6.4 | 0.00 | 0.00 | 0.00 | 41 | 1028.7 |
| 20260504010018 | 26 | 352 | 4.8 | 11.3 | 0.00 | 0.00 | 0.00 | 40 | 1028.5 |
| 20260504005515 | 26 | 346 | 9.7 | 14.5 | 0.00 | 0.00 | 0.00 | 39 | 1028.5 |
| 20260504005013 | 27 | 8 | 11.3 | 12.9 | 0.00 | 0.00 | 0.00 | 39 | 1028.4 |
| 20260504004510 | 27 | 15 | 11.3 | 14.5 | 0.00 | 0.00 | 0.00 | 39 | 1028.6 |
| 20260504004007 | 27 | 352 | 8.0 | 12.9 | 0.00 | 0.00 | 0.00 | 39 | 1028.5 |
| 20260504003503 | 27 | 353 | 9.7 | 11.3 | 0.00 | 0.00 | 0.00 | 39 | 1028.6 |
| 20260504003000 | 27 | 2 | 8.0 | 11.3 | 0.00 | 0.00 | 0.00 | 37 | 1028.7 |
| 20260504002457 | 27 | 12 | 9.7 | 12.9 | 0.00 | 0.00 | 0.00 | 38 | 1028.7 |
| 20260504001954 | 27 | 6 | 8.0 | 12.9 | 0.00 | 0.00 | 0.00 | 37 | 1028.7 |
| 20260504001452 | 27 | 359 | 6.4 | 11.3 | 0.00 | 0.00 | 0.00 | 38 | 1028.7 |
| 20260504000948 | 27 | 353 | 3.2 | 9.7 | 0.00 | 0.00 | 0.00 | 39 | 1029.0 |
| 20260504000445 | 27 | 12 | 3.2 | 9.7 | 0.00 | 0.00 | 0.00 | 38 | 1028.9 |
| 20260503235942 | 27 | 18 | 9.7 | 12.9 | 0.00 | 0.00 | 0.00 | 38 | 1028.9 |
| 20260503235440 | 27 | 359 | 4.8 | 6.4 | 0.00 | 0.00 | 0.00 | 38 | 1029.0 |